Location: Bagnara
(41.0500°N, 14.7833°E)
Time: 13:33:12
(UTC+00:00)

DELTA 2 R/B (1) - Pass Details

Date: 20 June 2021
Orbit: 790 x 803 km, 39.6° (Epoch: 04 August)

Event Time Altitude Azimuth Distance (km) Brightness Sun altitude
Exits shadow 00:17:05 59° 211° (SSW) 907 3.5 -23.2°
Maximum altitude 00:17:50 66° 168° (SSE) 855 3.4 -23.2°
Drops below altitude 10° 00:23:20 10° 87° (E) 2,350 6.3 -22.8°
Sets 00:25:50 0° 84° (E) 3,282 7.1 -22.7°
